Welcome to the New NWS' Forecast!
Most changes are behind the scenes, but click here for differences you might notice.

Regional Weather Roundup (RWR)

Issued by National Weather Service (NWS)

                            
000
ASUS46 KSEW 162010
RWRWA 

WASHINGTON REGIONAL WEATHER ROUNDUP
NATIONAL WEATHER SERVICE SEATTLE WA
1200 PM PST FRI NOV 16 2018

NOTE:"FAIR" INDICATES FEW OR NO CLOUDS BELOW 12,000 FEET WITH NO 
SIGNIFICANT WEATHER AND/OR OBSTRUCTIONS TO VISIBILITY.

WAZ507-509-555>559-162100-
SEATTLE, TACOMA, EVERETT, AND VICINITY
  
CITY           SKY/WX    TMP DP  RH WIND       PRES   REMARKS
EVERETT        CLOUDY    49  48  97 W7        30.24F                  
BOEING FIELD   CLOUDY    55  47  74 N3        30.23F                  
RENTON         PTSUNNY   55  49  80 NW10      30.23F                  
SEATAC AIRPORT PTSUNNY   55  50  83 N14       30.23F                  
JBLM-MCCHORD   CLOUDY    52  52 100 NE7       30.23F                  
PUYALLUP       CLOUDY    52  52 100 CALM      30.22F FOG              
BREMERTON      CLOUDY    53  47  79 NE8       30.23F                  
JBLM-FT LEWIS  CLOUDY    52  52 100 N7        30.22F                  
TACOMA NARROWS CLOUDY    50  49  96 N9        30.23F                  
$$
 
WAZ001-503-506-510-514-515-162100-
NORTH INTERIOR
  
CITY           SKY/WX    TMP DP  RH WIND       PRES   REMARKS
BELLINGHAM     SUNNY     56  41  57 N14G22    30.25F                  
FRIDAY HARBOR  SUNNY     53  46  77 VRB7      30.27S                  
EASTSOUND      PTSUNNY   52  50  93 N12       30.26F                  
PORT ANGELES   NOT AVBL                                               
EDIZ HOOK      CLOUDY    50  47  88 SE3       30.27F                  
PORT TOWNSEND  CLOUDY    50  48  93 NW5       30.25F                  
NAS WHIDBEY    PTSUNNY   55  47  74 N7        30.29F                  
ARLINGTON      PTSUNNY   52  50  93 W6        30.25F                  
BURLINGTON     CLOUDY    54  52  94 NW5       30.25F                  
$$
 
WAZ020-022-039-040-504-511-512-162100-
SOUTHWEST INTERIOR
  
CITY           SKY/WX    TMP DP  RH WIND       PRES   REMARKS
SHELTON        CLOUDY    54  48  80 NE6       30.22S                  
OLYMPIA        CLOUDY    52  49  89 NE10      30.23F                  
CHEHALIS       FOG       54  54 100 NW3       30.22F VSB 3/4          
KELSO          CLOUDY    51  49  92 SE7       30.22F                  
VANCOUVER      CLOUDY    50  48  93 CALM      30.22F                  
SCAPPOOSE, OR  CLOUDY    52  49  89 CALM      30.21F FOG              
PORTLAND, OR   CLOUDY    52  48  86 CALM      30.22F                  
$$
 
WAZ021-516-517-162100-
WASHINGTON COAST
  
CITY           SKY/WX    TMP DP  RH WIND       PRES   REMARKS
FORKS          CLOUDY    54  50  86 NE3       30.22S                  
HOQUIAM        CLOUDY    55  53  93 E8        30.21F                  
ASTORIA, OR    CLOUDY    53  53 100 NW3       30.20F FOG              
$$
 
WAZ019-023-024-040-567>569-162100-
CASCADE MOUNTAINS AND COLUMBIA GORGE
  
CITY           SKY/WX    TMP DP  RH WIND       PRES   REMARKS
STAMPEDE PASS  PTSUNNY   43  40  89 CALM      30.18F                  
TROUTDALE, OR  CLOUDY    55  48  77 CALM      30.21F                  
HOOD RIVER, OR CLOUDY    55  45  67 NW6       30.20F                  
THE DALLES, OR CLOUDY    53  42  66 NE8       30.22S                  
$$

WAZ026-027-041>044-520-521-162100-
EAST SLOPES
  
CITY           SKY/WX    TMP DP  RH WIND       PRES   REMARKS
OMAK           SUNNY     51  30  44 N13       30.26F                  
WENATCHEE      CLOUDY    47  37  68 NW3       30.24F                  
ELLENSBURG     CLOUDY    53  36  52 E12       30.21F                  
YAKIMA         CLOUDY    54  36  50 VRB3      30.22F                  
SUNNYSIDE ARPT CLOUDY    49  39  67 SW7       30.23F                  
YAKIMA TC      CLOUDY    53  32  43 E10       30.20F                  
$$

WAZ028-034-035-162100-
COLUMBIA BASIN
  
CITY           SKY/WX    TMP DP  RH WIND       PRES   REMARKS
EPHRATA        MOSUNNY   53  32  44 N10       30.22F                  
MOSES LAKE     MOSUNNY   50  35  56 NW7       30.23F                  
PASCO          PTSUNNY   52  38  58 N6        30.25F                  
RICHLAND ARPT  CLOUDY    55  37  50 N12       30.24F                  
HERMISTON, OR  CLOUDY    50  38  63 NE6       30.23F                  
$$

WAZ036>038-162100-
NORTHEAST WASHINGTON
  
CITY           SKY/WX    TMP DP  RH WIND       PRES   REMARKS
SPOKANE GEIGER MOSUNNY   46  31  55 N10       30.18F                  
SPOKANE FELTS  MOSUNNY   47  34  60 NW5       30.19F                  
FAIRCHILD AFB  SUNNY     46  30  54 N9        30.18S                  
COEURDALENE,ID PTSUNNY   45  35  68 N5        30.18F                  
DEER PARK      SUNNY     48  31  51 N5        30.19S                  
$$

WAZ029>033-162100-
SOUTHEAST WASHINGTON
  
CITY           SKY/WX    TMP DP  RH WIND       PRES   REMARKS
PULLMAN        SUNNY     47  37  68 W9        30.18F                  
LEWISTON, ID   CLOUDY    50  41  71 SW5       30.18F                  
WALLA WALLA    MOSUNNY   47  39  74 SE3       30.22F HAZE             
PENDLETON, OR  CLOUDY    49  40  71 CALM      30.20F                  
$$